Location: Ay?beleni
(36.6500°N, 30.3000°E)
Time: 03:19:22
(UTC+00:00)

Cosmos 1125 Rocket - Pass Details

Date: 16 October 2021
Orbit: 758 x 779 km, 74.0° (Epoch: 08 December)

Event Time Altitude Azimuth Distance (km) Brightness Sun altitude
Rises 15:51:25 0° 190° (S) 3,237 7.0 -6.9°
Reaches altitude 10° 15:53:48 10° 188° (S) 2,311 6.2 -7.3°
Maximum altitude 15:59:01 70° 105° (ESE) 821 3.5 -8.4°
Drops below altitude 10° 16:04:14 10° 23° (NNE) 2,312 5.7 -9.4°
Sets 16:06:37 0° 21° (NNE) 3,238 6.5 -9.9°
